Location: Staffa
(43.4435°N, 81.3374°W)
Time: 05:09:26
(UTC+00:00)

Daily predictions for brighter satellites

Satellite Brightness Start Highest point End
(mag) Time Altitude Azimuth Time Altitude Azimuth Time Altitude Azimuth
SL-16 R/B 3.2 00:02:49 10° N 00:07:33 26° NE 00:09:42 21° E
ARIANE 6 FM1 Upper Stage 4.4 00:06:21 10° N 00:08:47 16° NNE 00:09:10 15° NE
Helios 1A Rocket 3.2 00:11:01 29° ESE 00:11:01 29° ESE 00:13:44 10° SSE
Lacrosse 5 rocket 3.6 00:17:37 10° NNW 00:18:20 10° N 00:19:03 10° N
Cosmos 1782 3.1 00:16:37 10° N 00:19:42 35° ENE 00:19:42 35° ENE
USA 234 4.0 00:14:39 10° SSE 00:20:59 53° SW 00:27:23 10° WNW
PSLV R/B 3.7 00:18:59 10° S 00:23:06 71° WSW 00:27:11 10° NNW
YAOGAN 3 4.4 00:18:55 10° SSE 00:23:07 89° ENE 00:27:21 10° NNW
CRYOSAT 2 4.3 00:18:50 10° N 00:23:44 85° E 00:28:37 10° S
Cosmos 1602 2.6 00:21:41 10° S 00:24:27 83° E 00:25:21 38° NNE
YAOGAN 1 3.9 00:20:57 10° S 00:24:58 41° W 00:29:01 10° NNW
Cosmos 2058 4.4 00:21:52 10° SSE 00:23:13 19° SE 00:23:13 19° SE
Cosmos 1975 Rocket 2.9 00:21:55 10° S 00:26:15 73° E 00:30:34 10° NNE
COSMO-SKYMED 1 3.5 00:22:54 10° N 00:26:52 47° WNW 00:30:48 10° SW
Cosmos 1455 Rocket 3.3 00:22:47 10° NNW 00:27:04 70° W 00:31:20 10° S
Cosmos 2228 2.8 00:23:01 10° N 00:27:12 63° E 00:31:21 10° SSE
Gbstr 26 Del rocket 4.4 00:22:04 10° SSW 00:28:30 54° SE 00:32:36 27° ENE
Cosmos 2150 Rocket 3.8 00:26:33 10° NNW 00:31:42 71° ENE 00:36:36 11° SSE
Cosmos 44 Rocket 3.7 00:28:28 10° SW 00:33:20 66° NW 00:37:42 14° NNE
Cosmos 2298 Rocket 3.9 00:29:50 10° NNW 00:35:08 72° ENE 00:39:52 13° SSE
Atlas Centaur 2 4.2 00:28:57 10° WSW 00:35:15 27° S 00:39:40 15° SE
BREEZE-M DEB (TANK) 3.6 00:33:10 10° SSW 00:36:46 53° SE 00:42:03 25° ENE
BREEZE-M (TANK) 3.0 00:33:56 10° WNW 00:36:54 85° SSW 00:41:05 25° ESE
SJ-6B 2.3 00:37:18 23° SSE 00:39:22 90° NNE 00:42:49 10° NNW
CSL-04 Rocket 3.8 00:39:54 37° ESE 00:41:20 46° ENE 00:46:21 10° N
Cosmos 1816 Rocket 4.3 00:35:59 10° S 00:42:06 75° E 00:48:19 10° N
Cosmos 2297 Rocket 3.7 00:43:52 10° WSW 00:49:01 36° NW 00:54:13 10° N
Cosmos 2344 3.4 00:40:59 10° SSW 00:49:05 70° ESE 00:53:56 22° NE
Cosmos 2034 Rocket 3.9 00:44:28 10° N 00:50:37 66° E 00:56:47 10° SSE
IRAS Rocket 4.4 00:48:35 10° S 00:54:10 74° WSW 00:59:50 10° NNW
Cosmos 1634 Rocket 4.4 00:51:46 10° N 00:57:12 41° ENE 00:57:12 41° ENE
NOSS 3-4 (A) 4.0 00:52:10 10° NW 00:59:07 74° WSW 01:06:10 14° SSE
NOSS 3-4 (C) 4.0 00:52:26 10° NW 00:59:24 75° WSW 01:06:19 15° SSE
Cosmos 2219 3.5 00:58:41 10° S 01:03:18 48° SE 01:03:18 48° SE
DNEPR-1 R/B 4.1 01:00:22 10° NW 01:05:25 81° SW 01:07:26 42° SSE
Tiangong -0.1 01:03:10 10° W 01:04:53 28° WSW 01:04:53 28° WSW
Resurs 01 Rocket 3.5 01:07:18 10° SSW 01:11:10 30° W 01:15:05 10° NNW
CZ-4C R/B 4.4 01:12:53 10° NW 01:15:39 15° NNW 01:18:48 10° NNE
Cosmos 2263 Rocket 2.2 01:10:51 10° SSW 01:16:32 79° WNW 01:18:52 37° NNE
Feng Yun 1-1 Rocket 4.4 01:17:28 62° NE 01:17:28 62° NE 01:22:49 10° N
Cosmos 1346 Rocket 4.3 01:16:58 10° SW 01:20:14 31° WNW 01:20:44 30° WNW
BREEZE M DEB (TANK) 4.2 01:05:27 10° SW 01:21:19 50° SSE 01:21:49 49° SE
SPOT 5 2.9 01:22:01 77° WNW 01:22:01 77° WNW 01:26:52 10° NNW
Cosmos 2237 Rocket 4.4 01:20:58 10° NW 01:25:23 24° WSW 01:29:48 10° SSW
Cosmos 2227 Rocket 3.9 01:43:39 10° WSW 01:48:30 29° NW 01:52:47 13° N
SL-16 R/B 2.8 01:46:27 10° NW 01:51:38 51° W 01:51:38 51° W
Cosmos 2227 Rocket 3.9 08:56:38 29° NE 08:56:38 29° NE 09:01:27 10° ESE
COSMOS 2455 4.3 09:01:12 30° ESE 09:01:23 30° ESE 09:06:32 10° NE
Cosmos 1980 Rocket 3.9 09:21:56 21° SE 09:24:18 29° ESE 09:29:01 10° NE
USA 215 4.5 09:19:05 10° ENE 09:24:45 32° NNE 09:26:30 28° NNW
Cosmos 1697 Rocket 3.1 09:35:41 57° NE 09:35:41 57° NE 09:40:10 10° NNE
Meteor 2-21 Rocket 4.4 09:36:06 10° N 09:42:17 82° E 09:48:21 10° S
Cosmos 2344 4.0 09:51:07 43° WNW 09:54:21 67° WSW 10:05:45 10° SSE
ISS -0.9 10:00:03 14° SE 10:00:04 14° SE 10:01:58 10° E
BREEZE-M DEB (TANK) 3.6 10:06:11 53° W 10:07:34 75° NNW 10:12:47 10° ENE
Cosmos 2263 Rocket 2.6 10:03:40 14° NNW 10:08:37 60° ENE 10:14:10 10° SE
Cosmos 1570 Rocket 3.9 10:09:36 68° SSW 10:09:36 68° SSW 10:14:18 10° S
SJ-11-01 4.3 10:05:46 10° NNE 10:10:26 77° ESE 10:12:18 36° S
H-2A R/B 3.5 10:13:40 10° NNE 10:17:29 67° ESE 10:18:03 56° SSE
Cosmos 1777 Rocket 3.9 10:16:17 33° SSW 10:18:38 86° ESE 10:23:51 10° NNE
Cosmos 1486 Rocket 3.9 10:20:48 48° SW 10:22:15 73° WNW 10:27:35 10° NNE
CZ-2C R/B 3.4 10:18:33 10° N 10:21:14 30° NNW 10:21:14 30° NNW
SKYMED 2 3.9 10:22:23 10° SSE 10:26:41 64° ENE 10:30:59 10° N
Cosmos 773 Rocket 3.9 10:25:05 35° NW 10:27:12 65° WSW 10:32:19 10° S
Cosmos 2208 Rocket 4.0 10:27:37 21° NNW 10:31:13 66° WSW 10:36:35 10° S
Cosmos 1400 Rocket 4.1 10:31:54 10° SSE 10:35:26 39° E 10:39:01 10° NNE
Cosmos 1908 Rocket 3.7 10:33:09 10° S 10:37:28 75° E 10:41:51 10° NNE
Cosmos 2227 Rocket 2.4 10:38:31 31° NW 10:40:47 46° WSW 10:46:09 10° S
Cosmos 2123 Rocket 4.1 10:38:46 10° NNW 10:44:41 47° W 10:50:32 10° SSW
Cosmos 1939 Rocket 4.2 10:43:07 10° N 10:44:54 23° NNW 10:44:54 23° NNW
COSMOS 2455 3.1 10:44:22 30° WSW 10:47:03 49° NW 10:52:54 10° NNE
Cosmos 1812 3.0 10:45:09 10° SSE 10:47:24 38° E 10:49:39 10° NNE
Cosmos 1354 Rocket 3.9 10:45:49 10° SSW 10:51:01 88° WNW 10:56:18 10° NNE
NOSS 3-1 (C) 2.9 10:51:57 28° WSW 10:54:19 59° NW 10:59:46 10° NNE
Cosmos 2221 Rocket 3.5 10:52:15 10° NNW 10:56:47 71° W 11:01:15 10° S
Cosmos 1025 Rocket 3.2 10:56:35 10° NNW 11:00:47 47° W 11:04:56 10° SSW
NOSS 3-1 (A) 3.3 10:57:09 10° SSW 11:01:36 63° ESE 11:06:54 10° NE
Cosmos 1869 3.7 10:59:08 10° S 11:02:36 55° E 11:06:04 10° NNE
Cosmos 990 Rocket 3.9 10:58:34 10° SSW 11:03:47 75° WNW 11:09:02 10° NNE
USA 215 3.6 11:00:34 10° ESE 11:07:04 67° NE 11:13:35 10° NW
Cosmos 1980 Rocket 2.5 11:03:46 15° SW 11:08:03 43° WNW 11:13:23 10° NNE
Cosmos 1346 Rocket 3.9 11:06:01 10° N 11:09:32 42° ENE 11:13:01 10° SSE
SL-4 R/B 2.0 11:08:51 28° W 11:10:24 48° SW 11:14:01 10° SE
GP-B 3.2 11:07:14 10° N 11:11:39 79° E 11:16:00 10° S
Cosmos 1447 Rocket 4.4 11:08:37 10° NNW 11:14:50 73° W 11:21:06 10° S
COSMO-SKYMED 1 2.4 11:12:21 10° S 11:16:25 63° WSW 11:20:31 10° NNW
Cosmos 1844 Rocket 3.8 11:12:12 10° NNW 11:17:37 44° ENE 11:22:57 10° SE
Cosmos 1153 Rocket 4.5 11:12:12 10° S 11:18:34 82° W 11:24:53 10° N
Cosmos 1697 Rocket 4.1 11:17:25 17° WNW 11:19:07 19° NW 11:23:05 10° N
Exosat Rocket 4.5 11:15:32 10° NW 11:19:54 26° W 11:23:59 10° SSW
Cosmos 1300 Rocket 3.6 11:19:07 10° SSW 11:23:26 59° W 11:27:48 10° N
MOS 1 Rocket 4.2 11:22:17 10° NNE 11:26:32 50° E 11:30:58 10° S
Cosmos 1602 2.7 11:24:39 10° N 11:27:27 84° W 11:30:13 10° S
Cosmos 2237 4.2 11:22:45 10° SSW 11:28:25 71° WNW 11:34:08 10° NNE
IRS-1D 4.0 11:26:48 10° N 11:31:34 38° WNW 11:36:12 10° SW
EO 1 Delta rocket 4.5 11:27:15 10° N 11:34:19 77° WNW 11:39:48 10° SSW
ISS -3.8 11:33:09 10° WSW 11:36:30 78° NNW 11:39:52 10° NE
Cosmos 2360 Rocket 3.9 11:32:49 10° S 11:37:58 38° ESE 11:43:07 10° NE
Cosmos 1484 Rocket 2.4 11:36:39 10° N 11:40:09 72° WNW 11:43:37 10° SSW
Cosmos 2219 3.6 11:36:05 10° NW 11:41:24 41° WSW 11:46:39 10° S
Cosmos 1538 Rocket 4.0 11:39:01 10° NNW 11:44:21 84° WSW 11:49:35 10° SSE
Cosmos 2227 4.4 11:40:40 10° NNW 11:46:21 80° ENE 11:52:01 10° SSE
Aureole 1 Rocket 4.2 11:40:46 10° SSW 11:48:02 67° WNW 11:54:30 10° NNE
Cosmos 1862 3.7 11:44:56 10° N 11:48:28 58° E 11:51:59 10° SSE
Cosmos 1459 Rocket 3.9 11:44:54 10° S 11:50:56 80° W 11:57:03 10° N
Cosmos 2263 Rocket 3.4 11:47:57 10° NW 11:52:00 20° W 11:56:01 10° SW
Landsat 7 3.9 11:47:44 10° NNE 11:52:25 83° ESE 11:57:03 10° SSW
